Flag for Germany Weather past 2 weeks in Dinslaken, North Rhine-Westphalia, Germany

Now
45 °F

Drizzle. Low clouds.


Feels Like: 43 °F
Forecast: 32 / 53 °F
Wind: 5 mph from North

Location: Essen

Current Time: Apr 27, 2015 at 7:39:00 AM

Latest Report: Apr 27, 2015 at 7:00 AM


Visibility: 2 mi

Pressure: 29.67 "Hg

Humidity: 100%

Dew point: 45 °F

Location of DinslakenLocation

Historic Weather in Dinslaken — Graph

°F

Dinslaken temperature yesterday

Maximum temperature yesterday: 61 °F (at 4:00 PM)
Minimum temperature yesterday: 51 °F (at 4:00 AM)
Average temperature yesterday: 55 °F

Past Weeks' High & Low Weather Summary

 TemperatureHumidityPressure
High72 °F (Apr 15, 3:00 PM)100% (Apr 26, 3:00 AM)30.48 "Hg (Apr 26, 3:00 AM)
Low38 °F (Apr 19, 8:00 AM)27% (Apr 21, 5:00 PM)29.63 "Hg (Apr 27, 3:00 AM)
Average53 °F65%30.14 "Hg
* Reported Apr 12 6:00 AM — Apr 27 6:00 AM, Dinslaken, Weather by CustomWeather, © 2015

Note: Actual official high and low records may vary slightly from our data, if they occured in-between our weather recording intervals... More about our weather records

Advertising

Dinslaken weather history for previous 24 hours

 ConditionsComfort  
Time TempWeatherWind HumidityBarometerVisibility
6:00 AM
Mon, Apr 27
46 °FDrizzle. Low clouds.5 mph100%29.65 "Hg3 mi
5:00 AM48 °FLight rain. Low clouds.3 mph100%29.63 "Hg2 mi
4:00 AM49 °FLight rain. Low clouds.5 mph100%29.63 "Hg2 mi
3:00 AM50 °FRain. Low clouds.5 mph100%29.63 "Hg1 mi
2:00 AM51 °FRain. Low clouds.5 mph100%29.65 "Hg1 mi
1:00 AM52 °FLight rain. Low clouds.3 mph100%29.66 "Hg1 mi
12:00 AM53 °FLight rain. Low clouds.3 mph97%29.66 "Hg3 mi
11:00 PM
Sun, Apr 26
54 °FDrizzle. Low clouds.2 mph93%29.67 "Hg5 mi
10:00 PM54 °FOvercast.2 mph86%29.68 "Hg17 mi
9:00 PM55 °FOvercast.2 mph81%29.68 "Hg25 mi
8:00 PM56 °FDrizzle. Overcast.2 mph78%29.68 "Hg17 mi
7:00 PM59 °FOvercast.2 mph70%29.67 "Hg31 mi
6:00 PM58 °FOvercast.1 mph78%29.68 "Hg28 mi
5:00 PM60 °FOvercast.3 mph72%29.68 "Hg28 mi
4:00 PM61 °FOvercast.5 mph68%29.70 "Hg34 mi
3:00 PM59 °FLow clouds.5 mph76%29.72 "Hg25 mi
2:00 PM59 °FLight rain. Low clouds.3 mph76%29.72 "Hg12 mi
1:00 PM60 °FOvercast.5 mph74%29.73 "Hg22 mi
12:00 PM58 °FOvercast.5 mph78%29.74 "Hg16 mi
11:00 AM57 °FOvercast.5 mph83%29.74 "Hg13 mi
10:00 AM56 °FLow clouds.3 mph92%29.74 "Hg7 mi
9:00 AM54 °FLow clouds.5 mph97%29.74 "Hg7 mi
8:00 AM53 °FLow clouds.5 mph99%29.74 "Hg6 mi
7:00 AM52 °FLow clouds.3 mph99%29.73 "Hg7 mi
Weather by CustomWeather, © 2015

See weather overviewHow to use our weather pages